SCP
0 0 0 0 0 0 0 0 0 0 0 0 0 0 0 0 0 0 0 0 0 0 0 0 0 0 0 0 0 0 0 0 0 0 0 0 0 0 0 0 0 0 0
0 0 0 0 0 0 0 0 0 0 0 0 0 0 0 0 0 0 0 0 0 0 0 0 0 0 0 0 0 0 0 0 0 0 0 0 0 0 0 0 0 0 0
0 0 0 0 0 0 0 0 0 0 0 0 0 0 0 0 0 0 0 0 0 0 0 0 0 0 0 0 0 0 0 0 0 0 0 0 0 0 0 0 0 0 0
0 0 0 0 0 0 0 0 0 0 0 0 0 0 0 0 0 0 0 0 0 0 0 0 0 0 0 0 0 0 0 0 0 0 0 0 0 0 0 0 0 0 0
0 0 0 0 0 0 0 0 0 0 0 0 0 0 0 0 0 0 0 0 0 0 0 0 0 0 0 0 0 0 0 0 0 0 0 0 0 0 0 0 0 0 0
0 0 0 0 0 0 0 0 0 0 0 0 0 0 0 0 0 0 0 0 0 0 0 0 0 0 0 0 0 0 0 0 0 0 0 0 0 0 0 0 0 0 0
0 0 0 0 0 0 0 0 0 0 0 0 0 0 0 0 0 0 0 0 0 0 0 0 0 0 0 0 0 0 0 0 0 0 0 0 0 0 0 0 0 0 0
0 0 0 0 0 0 0 0 0 0 0 0 0 0 0 0 0 0 0 0 0 0 0 0 0 0 0 0 0 0 0 0 0 0 0 0 0 0 0 0 0 0 0
0 0 0 0 0 0 0 0 0 0 0 0 0 0 0 0 0 0 0 0 0 0 0 0 0 0 0 0 0 0 0 0 0 0 0 0 0 0 0 0 0 0 0
0 0 0 0 0 0 0 0 0 0 0 0 0 0 0 0 0 0 0 0 0 0 0 0 0 0 0 0 0 0 0 0 0 0 0 0 0 0 0 0 0 0 0
0 0 0 0 0 0 0 0 0 0 0 0 0 0 0 0 0 0 0 0 0 0 0 0 0 0 0 0 0 0 0 0 0 0 0 0 0 0 0 0 0 0 0
0 0 0 0 0 0 0 0 0 0 0 0 0 0 0 0 0 0 0 0 0 0 0 0 0 0 0 0 0 0 0 0 0 0 0 0 0 0 0 0 0 0 0
0 0 0 0 0 0 0 0 0 0 0 0 0 0 0 0 0 0 0 0 0 0 0 0 0 0 0 0 0 0 0 0 0 0 0 0 0 0 0 0 0 0 0
0 0 0 0 0 0 0 0 0 0 0 0 0 0 0 0 0 0 0 0 0 0 0 0 0 0 0 0 0 0 0 0 0 0 0 0 0 0 0 0 0 0 0
0 0 0 0 0 0 0 0 0 0 0 0 0 0 0 0 0 0 0 0 0 0 0 0 0 0 0 0 0 0 0 0 0 0 0 0 0 0 0 0 0 0 0
0 0 0 0 0 0 0 0 0 0 0 0 0 0 0 0 0 0 0 0 0 0 0 0 0 0 0 0 0 0 0 0 0 0 0 0 0 0 0 0 0 0 0
0 0 0 0 0 0 0 0 0 0 0 0 0 0 0 0 0 0 0 0 0 0 0 0 0 0 0 0 0 0 0 0 0 0 0 0 0 0 0 0 0 0 0
0 0 0 0 0 0 0 0 0 0 0 0 0 0 0 0 0 0 0 0 0 0 0 0 0 0 0 0 0 0 0 0 0 0 0 0 0 0 0 0 0 0 0
0 0 0 0 0 0 0 0 0 0 0 0 0 0 0 0 0 0 0 0 0 0 0 0 0 0 0 0 0 0 0 0 0 0 0 0 0 0 0 0 0 0 0
0 0 0 0 0 0 0 0 0 0 0 0 0 0 0 0 0 0 0 0 0 0 0 0 0 0 0 0 0 0 0 0 0 0 0 0 0 0 0 0 0 0 0
0 0 0 0 0 0 0 0 0 0 0 0 0 0 0 0 0 0 0 0 0 0 0 0 0 0 0 0 0 0 0 0 0 0 0 0 0 0 0 0 0 0 0
0 0 0 0 0 0 0 0 0 0 0 0 0 0 0 0 0 0 0 0 0 0 0 0 0 0 0 0 0 0 0 0 0 0 0 0 0 0 0 0 0 0 0
0 0 0 0 0 0 0 0 0 0 0 0 0 0 0 0 0 0 0 0 0 0 0 0 0 0 0 0 0 0 0 0 0 0 0 0 0 0 0 0 0 0 0
0 0 0 0 0 0 0 0 0 0 0 0 0 0 0 0 0 0 0 0 0 0 0 0 0 0 0 0 0 0 0 0 0 0 0 0 0 0 0 0 0 0 0
0 0 0 0 0 0 0 0 0 0 0 0 0 0 0 0 0 0 0 0 0 0 0 0 0 0 0 0 0 0 0 0 0 0 0 0 0 0 0 0 0 0 0
0 0 0 0 0 0 0 0 0 0 0 0 0 0 0 0 0 0 0 0 0 0 0 0 0 0 0 0 0 0 0 0 0 0 0 0 0 0 0 0 0 0 0
Wind_Speed_500mb
70 66 61 55 49 44 36 37 33 32 33 33 33 33 31 29 29 29 26 24 24 22 21 19 15 12 10 8 7 7 6 9 6 3 4 12 15 13 12 12 11 12 27
71 69 66 57 52 48 42 41 36 36 37 37 37 36 35 33 31 29 28 27 25 24 21 19 16 13 10 8 7 7 7 7 7 6 3 5 10 15 15 11 9 8 9
67 73 70 62 57 52 46 45 40 41 41 42 42 39 37 36 35 33 31 30 28 25 23 20 16 12 9 7 6 6 7 8 8 7 2 6 8 14 10 10 9 7 12
71 74 75 68 61 54 50 50 46 44 44 45 44 42 39 38 37 36 35 32 29 27 24 20 17 13 9 6 5 4 7 8 10 7 5 4 5 14 11 8 6 8 6
74 78 77 71 62 56 56 54 50 47 45 46 47 45 42 40 40 39 36 33 30 27 24 21 18 13 9 6 4 4 6 8 7 4 3 4 6 6 7 8 9 5 8
76 77 74 74 65 64 62 59 54 50 49 51 49 47 46 44 42 39 36 35 32 29 26 23 19 15 11 6 2 2 5 6 5 3 3 2 4 7 9 7 13 10 2
73 72 72 73 73 69 66 62 58 55 55 54 52 51 49 48 43 41 39 36 33 32 28 24 21 17 13 8 4 2 2 5 8 7 4 4 3 5 8 8 9 10 7
66 67 71 74 73 72 68 65 60 59 58 56 56 54 52 50 46 45 41 38 36 34 30 26 23 19 15 9 5 3 3 5 8 10 9 10 9 8 5 6 7 8 5
69 73 76 77 76 76 70 67 62 61 59 58 57 57 56 54 50 48 46 43 41 37 34 31 26 22 18 13 9 7 6 7 8 11 11 11 10 9 8 7 8 7 3
75 76 77 78 78 75 69 68 63 60 58 58 56 58 57 55 54 53 49 45 42 40 38 35 30 27 22 18 13 10 10 10 12 15 17 16 12 8 7 6 8 7 6
75 71 74 78 77 72 69 67 63 61 57 58 55 56 58 58 57 55 53 50 42 40 38 37 34 29 25 22 18 14 14 13 12 11 11 13 12 10 10 8 7 10 8
74 72 74 75 77 75 71 68 64 61 59 58 56 53 56 60 62 58 57 54 48 41 39 37 36 31 29 27 24 19 17 18 16 13 12 13 14 13 11 11 10 12 10
64 70 73 77 78 79 73 70 68 65 61 60 57 54 54 58 64 62 59 56 54 46 37 40 37 32 34 34 31 26 23 23 21 17 15 15 15 15 14 13 13 12 11
52 59 67 75 79 79 77 73 72 75 73 63 59 57 56 59 63 69 68 63 58 53 53 46 44 42 41 39 37 35 31 29 27 22 19 18 19 18 16 15 15 13 13
42 44 52 62 75 74 75 78 74 74 74 72 69 65 67 68 71 72 74 73 69 65 60 56 54 53 52 51 46 42 38 36 32 28 26 24 23 21 18 19 18 16 17
35 42 46 50 58 60 68 73 76 71 68 66 64 61 56 55 57 59 64 64 61 60 63 62 60 60 59 56 51 47 44 40 37 34 32 30 28 24 22 21 21 22 20
31 37 40 46 53 56 60 68 76 78 70 66 66 61 55 49 41 43 51 59 62 61 63 64 65 64 61 59 55 53 50 44 41 41 39 36 34 31 29 26 26 25 26
26 35 31 40 46 52 55 58 60 69 72 70 70 67 61 54 46 40 45 55 68 71 73 74 74 68 65 63 60 58 54 52 50 48 46 43 41 37 35 31 30 30 29
20 21 27 30 37 42 44 47 51 53 59 63 68 71 68 58 51 49 52 65 77 82 83 84 78 70 68 67 65 62 59 57 56 54 52 49 46 43 43 38 36 35 33
17 24 24 29 34 40 40 44 48 53 54 56 60 61 65 68 70 70 72 75 80 84 85 86 84 79 73 69 65 64 62 63 62 61 61 57 53 48 51 46 43 42 38
17 18 24 30 30 30 31 38 42 47 52 54 55 56 58 60 67 72 74 78 84 86 86 85 82 81 79 77 70 69 66 66 66 64 64 62 58 55 54 53 49 47 45
24 24 28 34 35 33 33 34 36 44 48 50 50 54 53 54 61 66 67 68 71 74 75 75 74 72 72 72 69 70 71 70 68 67 68 64 63 58 59 60 59 54 49
12 21 25 29 34 32 33 38 44 49 54 53 53 59 56 59 64 64 62 58 55 58 60 65 64 65 65 64 64 66 68 69 67 66 68 67 66 66 64 65 64 62 58
23 10 18 27 31 32 34 40 45 48 48 49 52 56 55 53 58 58 58 56 56 54 55 58 58 57 57 60 58 61 65 66 69 69 68 69 68 68 70 70 70 69 66
42 33 20 16 23 30 30 31 37 42 42 44 44 46 46 47 47 49 50 53 55 57 57 57 60 60 60 60 60 59 60 61 65 67 70 72 73 73 75 73 73 74 71
37 36 32 25 16 4 9 19 29 30 34 40 43 48 50 51 52 53 55 57 58 58 59 59 59 59 59 61 63 65 65 64 66 68 70 72 76 77 79 80 79 79 76
Wind_Direction_500mb
197 199 197 198 199 199 197 192 195 191 188 187 187 184 183 183 179 178 176 175 171 172 171 170 165 162 154 140 119 101 85 84 111 352 20 2 7 26 22 24 30 45 342
199 200 200 200 202 201 199 195 196 195 192 191 192 189 185 182 181 178 178 178 176 171 170 166 164 159 148 135 109 91 74 60 91 115 40 5 16 7 24 37 31 37 30
196 202 202 202 204 203 202 199 199 198 196 194 196 193 189 185 183 182 181 182 179 174 172 171 168 161 152 133 101 77 58 42 40 93 28 20 8 16 29 21 30 31 17
198 201 203 205 206 204 205 201 203 201 199 198 199 196 192 189 186 187 185 185 185 183 179 176 173 169 158 133 105 79 50 31 30 62 59 24 22 15 45 43 356 10 4
196 203 204 207 205 204 208 203 205 203 201 201 201 198 194 193 193 193 190 190 190 188 184 182 182 179 169 163 138 75 51 31 43 63 26 37 9 21 29 22 21 24 318
199 203 206 208 206 206 207 204 206 204 202 203 203 203 200 197 199 197 195 194 192 193 193 190 190 191 190 188 152 68 49 38 37 66 14 47 0 5 20 8 24 49 240
200 201 204 206 206 207 206 205 207 205 205 205 204 205 204 205 199 199 197 198 198 199 200 199 199 203 206 204 205 214 55 25 13 8 11 330 339 335 348 15 9 12 1
198 200 205 206 207 206 206 206 207 207 206 206 206 207 207 209 203 202 200 202 202 205 207 207 208 209 212 215 236 265 337 355 358 2 356 341 329 326 349 12 4 5 327
198 202 206 206 205 205 205 206 207 207 206 207 209 209 209 211 206 205 204 205 207 209 211 213 213 213 215 220 236 248 275 309 327 340 350 350 342 341 336 346 3 10 321
198 201 203 202 203 206 206 207 208 209 210 207 208 212 213 213 209 208 208 208 210 212 214 216 215 217 216 222 233 243 257 289 312 331 344 351 349 349 323 339 330 344 331
197 199 200 201 203 205 206 207 208 206 206 207 209 213 213 213 213 212 212 211 211 212 216 220 221 220 222 225 231 239 248 272 286 303 323 330 327 307 297 304 297 309 302
201 200 200 201 202 204 206 206 206 205 205 205 206 208 212 215 218 214 215 216 215 215 219 225 227 222 226 228 233 239 247 261 269 280 301 312 315 303 289 287 283 294 286
204 207 203 205 205 208 206 206 205 206 205 204 204 206 209 212 219 215 217 216 221 218 220 226 230 227 230 232 235 238 245 252 256 265 282 299 301 305 288 279 277 288 275
206 205 207 207 206 208 208 209 209 211 209 205 205 208 210 213 216 217 214 213 218 217 224 226 228 230 235 239 236 239 242 248 251 259 270 283 293 295 285 274 268 278 279
201 201 205 207 207 207 209 211 211 218 221 220 221 219 220 223 226 225 219 216 217 217 221 226 229 230 233 237 238 241 242 246 251 255 262 270 278 284 282 270 262 253 250
198 200 204 202 206 207 208 212 215 220 224 226 233 235 236 239 240 236 230 227 229 229 224 228 232 234 237 240 240 243 244 247 250 254 257 261 267 272 273 269 266 259 247
206 206 205 203 210 205 207 213 217 221 225 226 230 233 235 241 244 239 231 230 230 228 230 234 237 238 240 242 243 244 247 248 251 252 256 258 259 263 269 269 272 262 256
212 214 205 210 212 211 211 215 218 223 225 226 228 229 229 231 230 227 224 223 226 227 231 234 238 240 242 243 245 246 247 247 248 252 254 257 258 260 263 268 266 266 258
212 218 210 214 211 211 208 213 217 222 226 228 230 229 226 225 224 224 221 223 227 229 230 233 234 239 242 245 247 248 250 250 251 252 254 256 258 258 261 264 264 267 264
212 226 229 222 220 221 212 215 220 224 226 227 232 234 228 221 221 221 223 222 228 232 235 237 240 242 246 250 251 251 251 251 250 251 252 253 256 254 257 259 262 265 268
226 225 221 228 224 214 218 223 226 229 231 230 233 235 235 233 231 232 235 235 234 236 238 241 242 245 250 254 254 254 252 252 252 253 254 255 255 255 255 259 260 261 265
252 246 241 230 232 220 209 215 220 232 235 236 237 240 238 233 233 235 239 243 244 246 248 250 251 251 254 257 257 255 254 254 254 254 254 255 256 255 254 254 256 259 259
268 246 245 244 241 226 212 214 218 227 231 231 238 241 236 230 229 233 236 242 244 245 247 249 251 253 255 256 256 255 255 255 256 256 256 256 256 255 254 255 256 257 257
15 306 256 245 243 240 247 248 245 242 245 237 237 238 236 234 233 236 239 242 243 244 245 248 250 252 253 255 253 253 254 252 253 254 255 254 253 253 252 254 255 257 258
17 21 7 303 263 249 245 246 244 243 241 238 235 235 237 235 234 235 238 241 244 247 248 249 252 252 253 254 255 254 254 253 253 254 254 253 253 251 250 252 254 255 256
10 12 16 29 25 34 231 229 231 230 235 238 230 224 224 228 227 225 226 229 233 237 241 244 246 249 251 252 253 254 253 252 252 252 253 253 251 251 251 250 252 253 254
Wind_Speed_850mb
70 66 61 55 49 44 36 37 33 32 33 33 33 33 31 29 29 29 26 24 24 22 21 19 15 12 10 8 7 7 6 9 6 3 4 12 15 13 12 12 11 12 27
71 69 66 57 52 48 42 41 36 36 37 37 37 36 35 33 31 29 28 27 25 24 21 19 16 13 10 8 7 7 7 7 7 6 3 5 10 15 15 11 9 8 9
67 73 70 62 57 52 46 45 40 41 41 42 42 39 37 36 35 33 31 30 28 25 23 20 16 12 9 7 6 6 7 8 8 7 2 6 8 14 10 10 9 7 12
71 74 75 68 61 54 50 50 46 44 44 45 44 42 39 38 37 36 35 32 29 27 24 20 17 13 9 6 5 4 7 8 10 7 5 4 5 14 11 8 6 8 6
74 78 77 71 62 56 56 54 50 47 45 46 47 45 42 40 40 39 36 33 30 27 24 21 18 13 9 6 4 4 6 8 7 4 3 4 6 6 7 8 9 5 8
76 77 74 74 65 64 62 59 54 50 49 51 49 47 46 44 42 39 36 35 32 29 26 23 19 15 11 6 2 2 5 6 5 3 3 2 4 7 9 7 13 10 2
73 72 72 73 73 69 66 62 58 55 55 54 52 51 49 48 43 41 39 36 33 32 28 24 21 17 13 8 4 2 2 5 8 7 4 4 3 5 8 8 9 10 7
66 67 71 74 73 72 68 65 60 59 58 56 56 54 52 50 46 45 41 38 36 34 30 26 23 19 15 9 5 3 3 5 8 10 9 10 9 8 5 6 7 8 5
69 73 76 77 76 76 70 67 62 61 59 58 57 57 56 54 50 48 46 43 41 37 34 31 26 22 18 13 9 7 6 7 8 11 11 11 10 9 8 7 8 7 3
75 76 77 78 78 75 69 68 63 60 58 58 56 58 57 55 54 53 49 45 42 40 38 35 30 27 22 18 13 10 10 10 12 15 17 16 12 8 7 6 8 7 6
75 71 74 78 77 72 69 67 63 61 57 58 55 56 58 58 57 55 53 50 42 40 38 37 34 29 25 22 18 14 14 13 12 11 11 13 12 10 10 8 7 10 8
74 72 74 75 77 75 71 68 64 61 59 58 56 53 56 60 62 58 57 54 48 41 39 37 36 31 29 27 24 19 17 18 16 13 12 13 14 13 11 11 10 12 10
64 70 73 77 78 79 73 70 68 65 61 60 57 54 54 58 64 62 59 56 54 46 37 40 37 32 34 34 31 26 23 23 21 17 15 15 15 15 14 13 13 12 11
52 59 67 75 79 79 77 73 72 75 73 63 59 57 56 59 63 69 68 63 58 53 53 46 44 42 41 39 37 35 31 29 27 22 19 18 19 18 16 15 15 13 13
42 44 52 62 75 74 75 78 74 74 74 72 69 65 67 68 71 72 74 73 69 65 60 56 54 53 52 51 46 42 38 36 32 28 26 24 23 21 18 19 18 16 17
35 42 46 50 58 60 68 73 76 71 68 66 64 61 56 55 57 59 64 64 61 60 63 62 60 60 59 56 51 47 44 40 37 34 32 30 28 24 22 21 21 22 20
31 37 40 46 53 56 60 68 76 78 70 66 66 61 55 49 41 43 51 59 62 61 63 64 65 64 61 59 55 53 50 44 41 41 39 36 34 31 29 26 26 25 26
26 35 31 40 46 52 55 58 60 69 72 70 70 67 61 54 46 40 45 55 68 71 73 74 74 68 65 63 60 58 54 52 50 48 46 43 41 37 35 31 30 30 29
20 21 27 30 37 42 44 47 51 53 59 63 68 71 68 58 51 49 52 65 77 82 83 84 78 70 68 67 65 62 59 57 56 54 52 49 46 43 43 38 36 35 33
17 24 24 29 34 40 40 44 48 53 54 56 60 61 65 68 70 70 72 75 80 84 85 86 84 79 73 69 65 64 62 63 62 61 61 57 53 48 51 46 43 42 38
17 18 24 30 30 30 31 38 42 47 52 54 55 56 58 60 67 72 74 78 84 86 86 85 82 81 79 77 70 69 66 66 66 64 64 62 58 55 54 53 49 47 45
24 24 28 34 35 33 33 34 36 44 48 50 50 54 53 54 61 66 67 68 71 74 75 75 74 72 72 72 69 70 71 70 68 67 68 64 63 58 59 60 59 54 49
12 21 25 29 34 32 33 38 44 49 54 53 53 59 56 59 64 64 62 58 55 58 60 65 64 65 65 64 64 66 68 69 67 66 68 67 66 66 64 65 64 62 58
23 10 18 27 31 32 34 40 45 48 48 49 52 56 55 53 58 58 58 56 56 54 55 58 58 57 57 60 58 61 65 66 69 69 68 69 68 68 70 70 70 69 66
42 33 20 16 23 30 30 31 37 42 42 44 44 46 46 47 47 49 50 53 55 57 57 57 60 60 60 60 60 59 60 61 65 67 70 72 73 73 75 73 73 74 71
37 36 32 25 16 4 9 19 29 30 34 40 43 48 50 51 52 53 55 57 58 58 59 59 59 59 59 61 63 65 65 64 66 68 70 72 76 77 79 80 79 79 76
Wind_Direction_850mb
197 199 197 198 199 199 197 192 195 191 188 187 187 184 183 183 179 178 176 175 171 172 171 170 165 162 154 140 119 101 85 84 111 352 20 2 7 26 22 24 30 45 342
199 200 200 200 202 201 199 195 196 195 192 191 192 189 185 182 181 178 178 178 176 171 170 166 164 159 148 135 109 91 74 60 91 115 40 5 16 7 24 37 31 37 30
196 202 202 202 204 203 202 199 199 198 196 194 196 193 189 185 183 182 181 182 179 174 172 171 168 161 152 133 101 77 58 42 40 93 28 20 8 16 29 21 30 31 17
198 201 203 205 206 204 205 201 203 201 199 198 199 196 192 189 186 187 185 185 185 183 179 176 173 169 158 133 105 79 50 31 30 62 59 24 22 15 45 43 356 10 4
196 203 204 207 205 204 208 203 205 203 201 201 201 198 194 193 193 193 190 190 190 188 184 182 182 179 169 163 138 75 51 31 43 63 26 37 9 21 29 22 21 24 318
199 203 206 208 206 206 207 204 206 204 202 203 203 203 200 197 199 197 195 194 192 193 193 190 190 191 190 188 152 68 49 38 37 66 14 47 0 5 20 8 24 49 240
200 201 204 206 206 207 206 205 207 205 205 205 204 205 204 205 199 199 197 198 198 199 200 199 199 203 206 204 205 214 55 25 13 8 11 330 339 335 348 15 9 12 1
198 200 205 206 207 206 206 206 207 207 206 206 206 207 207 209 203 202 200 202 202 205 207 207 208 209 212 215 236 265 337 355 358 2 356 341 329 326 349 12 4 5 327
198 202 206 206 205 205 205 206 207 207 206 207 209 209 209 211 206 205 204 205 207 209 211 213 213 213 215 220 236 248 275 309 327 340 350 350 342 341 336 346 3 10 321
198 201 203 202 203 206 206 207 208 209 210 207 208 212 213 213 209 208 208 208 210 212 214 216 215 217 216 222 233 243 257 289 312 331 344 351 349 349 323 339 330 344 331
197 199 200 201 203 205 206 207 208 206 206 207 209 213 213 213 213 212 212 211 211 212 216 220 221 220 222 225 231 239 248 272 286 303 323 330 327 307 297 304 297 309 302
201 200 200 201 202 204 206 206 206 205 205 205 206 208 212 215 218 214 215 216 215 215 219 225 227 222 226 228 233 239 247 261 269 280 301 312 315 303 289 287 283 294 286
204 207 203 205 205 208 206 206 205 206 205 204 204 206 209 212 219 215 217 216 221 218 220 226 230 227 230 232 235 238 245 252 256 265 282 299 301 305 288 279 277 288 275
206 205 207 207 206 208 208 209 209 211 209 205 205 208 210 213 216 217 214 213 218 217 224 226 228 230 235 239 236 239 242 248 251 259 270 283 293 295 285 274 268 278 279
201 201 205 207 207 207 209 211 211 218 221 220 221 219 220 223 226 225 219 216 217 217 221 226 229 230 233 237 238 241 242 246 251 255 262 270 278 284 282 270 262 253 250
198 200 204 202 206 207 208 212 215 220 224 226 233 235 236 239 240 236 230 227 229 229 224 228 232 234 237 240 240 243 244 247 250 254 257 261 267 272 273 269 266 259 247
206 206 205 203 210 205 207 213 217 221 225 226 230 233 235 241 244 239 231 230 230 228 230 234 237 238 240 242 243 244 247 248 251 252 256 258 259 263 269 269 272 262 256
212 214 205 210 212 211 211 215 218 223 225 226 228 229 229 231 230 227 224 223 226 227 231 234 238 240 242 243 245 246 247 247 248 252 254 257 258 260 263 268 266 266 258
212 218 210 214 211 211 208 213 217 222 226 228 230 229 226 225 224 224 221 223 227 229 230 233 234 239 242 245 247 248 250 250 251 252 254 256 258 258 261 264 264 267 264
212 226 229 222 220 221 212 215 220 224 226 227 232 234 228 221 221 221 223 222 228 232 235 237 240 242 246 250 251 251 251 251 250 251 252 253 256 254 257 259 262 265 268
226 225 221 228 224 214 218 223 226 229 231 230 233 235 235 233 231 232 235 235 234 236 238 241 242 245 250 254 254 254 252 252 252 253 254 255 255 255 255 259 260 261 265
252 246 241 230 232 220 209 215 220 232 235 236 237 240 238 233 233 235 239 243 244 246 248 250 251 251 254 257 257 255 254 254 254 254 254 255 256 255 254 254 256 259 259
268 246 245 244 241 226 212 214 218 227 231 231 238 241 236 230 229 233 236 242 244 245 247 249 251 253 255 256 256 255 255 255 256 256 256 256 256 255 254 255 256 257 257
15 306 256 245 243 240 247 248 245 242 245 237 237 238 236 234 233 236 239 242 243 244 245 248 250 252 253 255 253 253 254 252 253 254 255 254 253 253 252 254 255 257 258
17 21 7 303 263 249 245 246 244 243 241 238 235 235 237 235 234 235 238 241 244 247 248 249 252 252 253 254 255 254 254 253 253 254 254 253 253 251 250 252 254 255 256
10 12 16 29 25 34 231 229 231 230 235 238 230 224 224 228 227 225 226 229 233 237 241 244 246 249 251 252 253 254 253 252 252 252 253 253 251 251 251 250 252 253 254